[[{"header":{"parameterUnit":"m.s-1","parameterCategory":1,"la1":30.2991,"la2":30.254,"lo1":-89.0895,"lo2":-89.0444,"dy":0.0017,"dx":0.0017,"nx":28,"ny":28,"refTime":"2025-04-12T03:00:00:Z","depth":0,"parameterNumber":2,"parameterNumberName":"U-component_of_WINDS"},"data":[0,0,0,0,0,0,0,0,0,0,0,0,0,0,0,0,0,0,0,0,0,0,0,0,0,0,0,0,0,0,0,0,0,0,0,0,0,0,0,0,0,0,0,0,0,0,0,0,0,0,0,0,0,0,0,0,0,0,1.5278,1.5278,0,1.5332,1.5333,1.5333,1.5348,1.5348,1.5348,1.5347,1.5405,1.5406,1.5408,0,0,0,0,0,0,0,0,0,0,0,0,0,1.5192,1.5193,1.5278,1.5278,1.5279,1.5332,1.5333,1.5333,1.5348,1.5348,1.5348,1.5347,1.5404,1.5406,1.5408,0,0,0,0,0,0,0,0,0,0,0,0,0,1.5236,1.5194,1.5278,1.5293,1.5295,1.5332,1.5333,1.5333,1.5348,1.5348,1.5347,1.5347,1.5403,1.5406,1.5409,1.5435,0,0,1.5417,1.5418,0,0,0,0,0,0,0,0,1.5233,1.5239,1.529,1.5292,1.5294,1.5333,1.5323,1.5368,1.5348,1.5328,1.5347,1.5347,1.5381,1.5386,1.5397,1.5438,1.544,1.5417,1.5419,1.542,1.5421,0,0,0,0,0,0,0,1.523,1.5237,1.5299,1.5291,1.5293,1.5298,1.5304,1.5332,1.5357,1.533,1.5331,1.5337,1.5382,1.5394,1.5398,1.5441,1.5417,1.542,1.5421,1.5422,1.5509,1.551,0,0,0,0,0,0,1.5224,1.5234,1.5298,1.5301,1.5262,1.53,1.5307,1.5321,1.5356,1.5361,1.5337,1.5338,1.539,1.5395,1.5401,1.5435,1.542,1.5423,1.5424,1.5508,1.5509,1.551,0,0,0,0,0,0,1.5222,1.5229,1.5295,1.5268,1.5277,1.5302,1.5318,1.5322,1.5334,1.5362,1.5367,1.5345,1.539,1.5397,1.5427,1.5438,1.5424,1.5426,1.5508,1.5509,1.551,1.5504,0,0,0,0,0,0,1.5219,1.5229,1.5238,1.5268,1.5278,1.5319,1.5319,1.5324,1.5339,1.5339,1.537,1.5375,1.539,1.5423,1.543,1.5441,1.5428,1.5507,1.5508,1.5509,1.5503,1.5505,1.5506,0,0,0,0,0,1.5216,1.5234,1.5238,1.5246,1.529,1.532,1.5326,1.5342,1.5339,1.535,1.5368,1.5374,1.5435,1.5426,1.5433,1.5446,1.5506,1.5508,1.5509,1.5503,1.5504,1.5506,0,0,0,0,0,0,1.5204,1.5238,1.5243,1.527,1.5292,1.5322,1.5335,1.5343,1.5366,1.5366,1.5386,1.5393,1.5422,1.5437,1.5425,1.5475,1.5471,1.5474,1.5464,1.5465,1.5467,1.5462,1.5431,0,0,0,0,0,1.5204,1.5225,1.5254,1.5275,1.5286,1.5309,1.5323,1.5333,1.5357,1.5366,1.5387,1.5411,1.5436,1.5451,1.5475,1.5506,1.5514,1.5519,1.552,1.5521,1.5523,1.5543,1.5546,1.5515,1.5515,1.5515,0,0,1.5205,1.5226,1.5238,1.5273,1.5292,1.5314,1.5316,1.5339,1.5357,1.537,1.54,1.5416,1.5444,1.5475,1.549,1.5489,1.5534,1.5523,1.5523,1.5525,1.5545,1.5548,1.5551,1.5516,1.5516,1.5516,0,0,1.5219,1.5236,1.5257,1.5276,1.5303,1.5319,1.5324,1.5354,1.5365,1.5396,1.5407,1.5429,1.547,1.5491,1.5506,1.5531,1.5538,1.5539,1.5545,1.5564,1.5567,1.5569,1.558,1.5583,1.5541,1.5541,1.5541,0,1.5216,1.525,1.5267,1.529,1.5306,1.532,1.5342,1.536,1.5394,1.5406,1.5404,1.5459,1.5478,1.5516,1.5522,1.5534,1.5542,1.5535,1.5565,1.5567,1.557,1.558,1.5584,1.5541,1.5541,1.5541,1.5541,0,1.5247,1.527,1.5284,1.5317,1.5335,1.5358,1.538,1.5396,1.5407,1.5423,1.5456,1.548,1.5511,1.552,1.553,1.556,1.5559,1.5561,1.5557,1.5572,1.5583,1.5587,1.5541,1.5541,1.5541,1.5541,0,0,1.5251,1.5296,1.5301,1.5317,1.535,1.5369,1.5394,1.5424,1.5439,1.5463,1.5485,1.5522,1.5525,1.5543,1.5556,1.5573,1.5593,1.5573,1.5574,1.5577,1.563,1.5629,1.5633,1.5599,1.56,1.56,1.5629,0,1.5269,1.5313,1.5331,1.5367,1.539,1.5405,1.5427,1.5451,1.5468,1.5491,1.551,1.5536,1.5537,1.5549,1.5566,1.5587,1.5604,1.5585,1.5621,1.5622,1.5614,1.5638,1.5636,1.5661,1.5632,1.5633,1.5634,0,1.5296,1.5321,1.5359,1.5392,1.5403,1.5422,1.5452,1.5474,1.5502,1.5514,1.5535,1.5548,1.5577,1.5572,1.5613,1.56,1.5616,1.5629,1.5631,1.5635,1.5629,1.5644,1.567,1.5674,1.564,1.5639,1.5639,0,1.5297,1.534,1.5369,1.5383,1.5422,1.5436,1.5453,1.5481,1.5499,1.5526,1.5538,1.5568,1.5585,1.5609,1.5631,1.5625,1.5671,1.5667,1.5683,1.5682,1.5691,1.569,1.5721,1.5701,1.5701,1.5701,1.5701,0,1.5315,1.5338,1.5371,1.5389,1.5416,1.5438,1.5465,1.5483,1.5509,1.5532,1.5547,1.5569,1.5596,1.5622,1.5639,1.5672,1.5679,1.569,1.5694,1.5689,1.5688,1.57,1.5699,1.5702,1.5702,1.5701,1.5701,0,1.5321,1.5343,1.5376,1.5411,1.5421,1.5439,1.547,1.549,1.5508,1.5538,1.5546,1.5576,1.5607,1.5631,1.5672,1.5684,1.5719,1.5724,1.571,1.5712,1.5726,1.5725,1.5766,1.5773,1.5747,1.5748,1.5748,0,1.5331,1.5349,1.5387,1.5403,1.542,1.5447,1.5466,1.5489,1.5508,1.5544,1.5559,1.5592,1.5619,1.567,1.5696,1.5728,1.5734,1.5746,1.5739,1.5734,1.5736,1.5735,1.5738,1.5747,1.5747,1.5747,1.5747,0,1.5347,1.5358,1.5384,1.5415,1.5437,1.5463,1.5489,1.5502,1.553,1.5551,1.5584,1.5605,1.5648,1.5681,1.5717,1.5737,1.5748,1.575,1.5755,1.575,1.5742,1.5748,1.5713,1.5749,1.5748,1.5748,1.5748,1.5748,1.5356,1.5374,1.5404,1.5433,1.5456,1.548,1.5501,1.5523,1.555,1.5587,1.5599,1.5634,1.5665,1.5714,1.5734,1.5763,1.5763,1.577,1.5773,1.5774,1.5775,1.5737,1.5769,1.5769,1.5769,1.5769,1.5769,0,1.5374,1.5395,1.5422,1.5458,1.5482,1.549,1.5521,1.554,1.557,1.5598,1.5626,1.5665,1.5698,1.5728,1.5763,1.5781,1.5787,1.5789,1.5788,1.5793,1.5772,1.5764,1.5784,1.5784,1.5784,1.5784,1.5784,1.5784,1.5386,1.5418,1.5433,1.5477,1.5498,1.5531,1.5548,1.5572,1.5595,1.5638,1.5666,1.5685,1.5715,1.5753,1.5785,1.5793,1.5806,1.5807,1.5817,1.5796,1.5794,1.5793,1.5785,1.5809,1.581,1.5836,1.5836,1.5836]},{"header":{"parameterUnit":"m.s-1","parameterCategory":1,"la1":30.2991,"la2":30.254,"lo1":-89.0895,"lo2":-89.0444,"dy":0.0017,"dx":0.0017,"nx":28,"ny":28,"refTime":"2025-04-12T03:00:00:Z","depth":0,"parameterNumber":3,"parameterNumberName":"V-component_of_WINDS"},"data":[0,0,0,0,0,0,0,0,0,0,0,0,0,0,0,0,0,0,0,0,0,0,0,0,0,0,0,0,0,0,0,0,0,0,0,0,0,0,0,0,0,0,0,0,0,0,0,0,0,0,0,0,0,0,0,0,0,0,-2.768,-2.768,0,-2.765,-2.765,-2.765,-2.7724,-2.7727,-2.7729,-2.7731,-2.7694,-2.7691,-2.7688,0,0,0,0,0,0,0,0,0,0,0,0,0,-2.7796,-2.7794,-2.768,-2.768,-2.7679,-2.765,-2.765,-2.765,-2.7724,-2.7727,-2.773,-2.7732,-2.7695,-2.7691,-2.7687,0,0,0,0,0,0,0,0,0,0,0,0,0,-2.7754,-2.7793,-2.768,-2.7713,-2.7716,-2.765,-2.765,-2.7649,-2.7723,-2.7727,-2.773,-2.7734,-2.7696,-2.7692,-2.7687,-2.7586,0,0,-2.7672,-2.767,0,0,0,0,0,0,0,0,-2.7756,-2.7749,-2.7709,-2.7711,-2.7714,-2.7695,-2.7677,-2.7628,-2.7722,-2.772,-2.7731,-2.7735,-2.7691,-2.7687,-2.7673,-2.7584,-2.7583,-2.7672,-2.7669,-2.7667,-2.7665,0,0,0,0,0,0,0,-2.7759,-2.7751,-2.7668,-2.7708,-2.7711,-2.7728,-2.7726,-2.7668,-2.7686,-2.7721,-2.7726,-2.7722,-2.7693,-2.7678,-2.7673,-2.7582,-2.7672,-2.7668,-2.7665,-2.7663,-2.7409,-2.7406,0,0,0,0,0,0,-2.7759,-2.7753,-2.7669,-2.7667,-2.7744,-2.7723,-2.772,-2.7697,-2.7687,-2.7689,-2.7719,-2.7725,-2.7684,-2.7678,-2.7672,-2.7552,-2.7667,-2.7662,-2.766,-2.7413,-2.7409,-2.7404,0,0,0,0,0,0,-2.7761,-2.775,-2.767,-2.7712,-2.7703,-2.7717,-2.769,-2.7695,-2.7679,-2.7685,-2.7688,-2.77,-2.7687,-2.7678,-2.7607,-2.7552,-2.766,-2.7656,-2.7418,-2.7412,-2.7407,-2.7313,0,0,0,0,0,0,-2.7764,-2.7751,-2.7713,-2.771,-2.77,-2.7607,-2.7687,-2.7691,-2.7672,-2.768,-2.7669,-2.767,-2.7689,-2.7614,-2.7603,-2.7547,-2.7652,-2.7423,-2.7415,-2.7408,-2.7321,-2.7305,-2.7291,0,0,0,0,0,-2.7768,-2.7687,-2.7711,-2.7701,-2.7654,-2.7604,-2.7598,-2.7623,-2.7667,-2.7629,-2.7633,-2.767,-2.7561,-2.7606,-2.7594,-2.7536,-2.7426,-2.7417,-2.7409,-2.7328,-2.7308,-2.7291,0,0,0,0,0,0,-2.768,-2.7687,-2.7714,-2.763,-2.7616,-2.7617,-2.7569,-2.7601,-2.7573,-2.7581,-2.7612,-2.7609,-2.7531,-2.7527,-2.7578,-2.7439,-2.7501,-2.7489,-2.7443,-2.7424,-2.741,-2.741,-2.7648,0,0,0,0,0,-2.7651,-2.7612,-2.762,-2.7545,-2.7537,-2.7554,-2.7533,-2.7554,-2.754,-2.7534,-2.7533,-2.7516,-2.7478,-2.7451,-2.7417,-2.7322,-2.732,-2.7277,-2.7262,-2.7249,-2.7238,-2.7186,-2.7167,-2.7376,-2.7376,-2.7376,0,0,-2.759,-2.759,-2.7562,-2.7527,-2.7519,-2.7475,-2.7548,-2.7499,-2.7466,-2.7525,-2.7458,-2.7457,-2.7441,-2.7357,-2.732,-2.7351,-2.718,-2.7238,-2.7228,-2.7223,-2.7175,-2.7156,-2.7138,-2.737,-2.7371,-2.7372,0,0,-2.7457,-2.7454,-2.739,-2.7382,-2.737,-2.7382,-2.7367,-2.7364,-2.7366,-2.73,-2.7343,-2.7305,-2.7239,-2.7225,-2.7209,-2.7074,-2.7106,-2.7062,-2.6981,-2.6931,-2.6914,-2.69,-2.6849,-2.6831,-2.7051,-2.7051,-2.7051,0,-2.7382,-2.732,-2.7353,-2.7301,-2.7284,-2.734,-2.7275,-2.7264,-2.724,-2.7226,-2.7262,-2.7182,-2.7174,-2.7088,-2.7055,-2.7042,-2.7024,-2.7061,-2.6915,-2.69,-2.6887,-2.6839,-2.682,-2.7045,-2.7046,-2.7047,-2.7047,0,-2.7228,-2.7184,-2.7135,-2.7113,-2.709,-2.7032,-2.7055,-2.7028,-2.7052,-2.7061,-2.6993,-2.6987,-2.6952,-2.6934,-2.6955,-2.685,-2.687,-2.691,-2.6972,-2.6861,-2.6816,-2.6799,-2.7037,-2.7039,-2.7041,-2.7042,0,0,-2.7033,-2.7034,-2.7014,-2.7005,-2.6997,-2.6963,-2.6908,-2.6877,-2.6852,-2.6835,-2.6787,-2.6732,-2.677,-2.6752,-2.6773,-2.673,-2.6621,-2.6775,-2.6775,-2.6744,-2.6502,-2.6469,-2.6448,-2.6645,-2.6641,-2.6639,-2.6503,0,-2.69,-2.6806,-2.6836,-2.6741,-2.67,-2.6754,-2.6706,-2.6695,-2.6702,-2.6667,-2.6675,-2.6634,-2.6689,-2.6678,-2.6638,-2.6642,-2.6572,-2.6653,-2.6598,-2.6595,-2.6596,-2.6425,-2.639,-2.6262,-2.6486,-2.6483,-2.6481,0,-2.673,-2.6709,-2.661,-2.661,-2.6594,-2.655,-2.6524,-2.6491,-2.648,-2.6489,-2.647,-2.6501,-2.6445,-2.6512,-2.6434,-2.6489,-2.6469,-2.6468,-2.6464,-2.6456,-2.6528,-2.6409,-2.6222,-2.6201,-2.6454,-2.6456,-2.6458,0,-2.6595,-2.6542,-2.6476,-2.6467,-2.6466,-2.6433,-2.6431,-2.6424,-2.6403,-2.6381,-2.6367,-2.6337,-2.632,-2.6295,-2.6317,-2.6364,-2.6235,-2.6304,-2.6238,-2.6237,-2.6205,-2.6206,-2.6007,-2.6198,-2.6198,-2.6198,-2.6199,0,-2.644,-2.6377,-2.6415,-2.6374,-2.6304,-2.634,-2.627,-2.6273,-2.6267,-2.6226,-2.6272,-2.6232,-2.6265,-2.6228,-2.6245,-2.6177,-2.617,-2.6173,-2.6177,-2.6167,-2.6166,-2.6151,-2.6158,-2.6193,-2.6195,-2.6196,-2.6196,0,-2.6275,-2.6299,-2.623,-2.6236,-2.6237,-2.6185,-2.6189,-2.6151,-2.6164,-2.6111,-2.6101,-2.6119,-2.6079,-2.61,-2.6056,-2.6068,-2.5979,-2.5998,-2.5983,-2.5986,-2.5919,-2.5923,-2.57,-2.5672,-2.5884,-2.5882,-2.588,0,-2.6173,-2.6126,-2.6128,-2.6106,-2.6101,-2.6064,-2.6044,-2.6078,-2.6055,-2.604,-2.6003,-2.5967,-2.5939,-2.5871,-2.5879,-2.5847,-2.5862,-2.5787,-2.5857,-2.5848,-2.5857,-2.5858,-2.5853,-2.577,-2.5768,-2.5766,-2.5764,0,-2.5988,-2.6003,-2.5973,-2.5948,-2.5924,-2.5905,-2.589,-2.5869,-2.5903,-2.5875,-2.5835,-2.5814,-2.5772,-2.5734,-2.5707,-2.5703,-2.5737,-2.5743,-2.5726,-2.5712,-2.5704,-2.5705,-2.594,-2.5747,-2.5749,-2.575,-2.5751,-2.5752,-2.5849,-2.5809,-2.5805,-2.5771,-2.5765,-2.575,-2.5714,-2.5724,-2.5692,-2.5662,-2.5684,-2.5636,-2.5628,-2.5595,-2.5586,-2.5548,-2.5578,-2.5553,-2.5546,-2.5539,-2.5528,-2.5714,-2.5544,-2.5544,-2.5545,-2.5545,-2.5546,0,-2.5663,-2.5665,-2.5633,-2.5612,-2.5585,-2.5626,-2.5612,-2.5586,-2.5544,-2.5535,-2.5508,-2.5462,-2.5427,-2.5434,-2.5402,-2.537,-2.5385,-2.536,-2.536,-2.5358,-2.5505,-2.5522,-2.5348,-2.5348,-2.5348,-2.5348,-2.5348,-2.5348,-2.5563,-2.5498,-2.5513,-2.5445,-2.5447,-2.5402,-2.5391,-2.5377,-2.537,-2.5317,-2.5289,-2.5296,-2.5292,-2.5261,-2.5229,-2.5233,-2.5217,-2.5185,-2.5193,-2.5329,-2.5348,-2.5367,-2.5382,-2.5182,-2.5182,-2.5049,-2.5048,-2.5047]}]]